Regional Weather Roundup
Issued by NWS Albany, NY

Home | Current Version | Previous Version | Graphics & Text | Print | Product List | Glossary Off
Versions: 1 2 3 4 5 6 7 8 9 10 11 12 13 14 15 16 17 18 19 20 21 22 23 24 25 26 27 28 29 30 31 32 33 34 35 36 37 38 39 40 41 42 43 44 45 46 47 48 49 50

000
ASUS41 KALY 041610
RWRALY

NEW YORK STATE HOURLY WEATHER ROUNDUP
NATIONAL WEATHER SERVICE ALBANY NY
1200 PM EDT TUE AUG 04 2015

NOTE: "FAIR" INDICATES FEW OR NO CLOUDS BELOW 12,000 FEET WITH NO
SIGNIFICANT WEATHER AND/OR NO OBSTRUCTIONS TO VISIBILITY.

NYZ032-033-038>043-046>054-057>066-NYZ062>081-041700-
EAST


CITY           SKY/WX    TMP DP  RH WIND       PRES   REMARKS
ALBANY         PTSUNNY   80  66  62 VRB6      29.84F
GLENS FALLS    MOSUNNY   75  66  73 S6        29.82F
POUGHKEEPSIE   SUNNY     85  65  51 SW9       29.83S
NEWBURGH       MOSUNNY   81  68  65 SW12      29.86S
MONTGOMERY     PTSUNNY   82  69  64 VRB7      29.84S
WHITE PLAINS   MOSUNNY   84  64  50 VRB6      29.85F
ISLIP          MOSUNNY   84  69  60 SW13G22   29.84F
NEW YORK CITY  MOSUNNY   85  63  47 SW13G23   29.85S
CENTRAL PARK   SUNNY     84  65  52 VRB3      29.88S
$$

NYZ005>009-017-018-044>046-055-056-041700-
CENTRAL


CITY           SKY/WX    TMP DP  RH WIND       PRES   REMARKS
FULTON         PTSUNNY   73  61  65 W7        29.88S
SYRACUSE       PTSUNNY   76  59  55 W10       29.86F
ROME           PTSUNNY   76  58  53 W13G18    29.87F
ELMIRA         CLOUDY    76  60  57 W15       29.89S
BINGHAMTON     MOSUNNY   74  60  61 W13       29.91S
MONTICELLO     MOSUNNY   75  64  69 W6        29.90S
$$

NYZ026>034-041>043-041700-
NORTH


CITY           SKY/WX    TMP DP  RH WIND       PRES   REMARKS
WATERTOWN      MOSUNNY   73  59  61 W9        29.86S
FORT DRUM      NOT AVBL
MASSENA        SUNNY     74  56  53 SW10G21   29.82S
SARANAC LAKE   CLOUDY    67  58  72 SW7       29.86S
PLATTSBURGH    MOSUNNY   76  61  59 VRB6      29.79F
$$

NYZ001>004-010>016-019>021-041700-
WEST


CITY           SKY/WX    TMP DP  RH WIND       PRES   REMARKS
NIAGARA FALLS  PTSUNNY   74  58  57 S10       29.88F
BUFFALO        PTSUNNY   75  57  53 W13       29.89F
DUNKIRK        MOSUNNY   73  60  63 W12G20    29.93R
JAMESTOWN      PTSUNNY   70  54  56 W14G24    29.97R
WELLSVILLE     PTSUNNY   70  57  63 W13G20    29.97S
ROCHESTER      PTSUNNY   73  61  65 VRB7      29.89F
PENN YAN       LGT RAIN  67  62  84 SW5       29.92R
$$

             KEY
       WCI = WIND CHILL INDEX
       VSB = VISIBILITY
       HX  = HEAT INDEX
$$


USA.gov is the U.S. government's official web portal to all federal, state and local government web resources and services.